COMPLETED DISPATCHED CALLS FOR SERVICE

Welcome to the Jacksonville Sheriff’s Office Completed Dispatched Calls for Service webpage. This page displays calls for service made to the Jacksonville Sheriff's Office that have recently been completed. The data on this page is refreshed automatically.

This information is not intended to be used as official crime data. This program does not provide information about all crimes, and excludes specific incidents such as sexual assaults and child abuse.

Disclaimer: The Jacksonville Sheriff's Office makes every effort to produce and publish current and accurate information. No warranties, expressed or implied, are provided for the data herein, its use, or its interpretation. The services provided are for informational purposes only and should not be relied on for any type of legal action.

Last refreshed 4/30 14:47:37

Incident # Dispatched Block Address Signal Call Description  
160430277040 4-30 14:46 BLANDING/ARGYLE 13 SUSPICIOUS PERSON
160430277022 4-30 14:37 4600 RIVER CITY DR 1066 CANCEL
160430276982 4-30 14:32 E I10 EXPWY AND S CHAFFEE RD 63 DISPUTE
160430277016 4-30 14:32 13300 SMITHWICK LN 1066 CANCEL
160430276979 4-30 14:32 BONNEVAL RD AND PHILLIPS HWY 27 MENTALLY ILL PERSON
160430276994 4-30 14:25 10300 SOUTHSIDE BLVD 9J THEFT JUST OCCURRED
160430276966 4-30 14:25 8000 SOUTHSIDE BLVD 1066 CANCEL
160430276998 4-30 14:21 HART EXP BEFORE UNIVERISITY 16 ROAD OBSTRUCTION
160430276961 4-30 14:17 7200 MERRILL RD 76 ASSIST OTHER AGENCY
160430276969 4-30 14:11 6400 SOLANDRA DR 13 SUSPICIOUS PERSON
160430276965 4-30 14:07 N I295 EXPWY AND ZOO PKWY 76 ASSIST OTHER AGENCY
160430276912 4-30 14:03 8800 PERIMETER PARK BLVD 63 DISPUTE
160430276956 4-30 14:01 BEACH/I295 16 ROAD OBSTRUCTION
160430276829 4-30 14:01 600 N LINCOLN CT 88 ASSAULT
160430276947 4-30 13:59 N I95 EXPWY AND PHILLIPS HWY 16 ROAD OBSTRUCTION
160430276811 4-30 13:55 3800 W UNIVERSITY BLVD 1066 CANCEL
160430276860 4-30 13:53 7500 SOUTHSIDE BLVD 63 DISPUTE
160430276904 4-30 13:52 14500 OLD ST AUGUSTINE RD 50 FOUND/ABANDONED PROPERTY
160430276929 4-30 13:51 N I95 EXPWY AND BOWDEN RD 13 SUSPICIOUS PERSON
160430276925 4-30 13:50 6200 COLGATE RD 2 63 DISPUTE IMPAIRED/INTOXICATED
160430276931 4-30 13:49 500 W ADAMS 96 ASSIST MOTORIST
160430276892 4-30 13:44 8000 JAGUAR DR 63 DISPUTE
160430276916 4-30 13:44 8300 W EARL CIR 1066 CANCEL
160430276899 4-30 13:43 2000 WILEY OAKS LN 64 NOISE COMPLAINT
160430276908 4-30 13:37 1900 N LIBERTY ST 76 ASSIST OTHER AGENCY
160430276909 4-30 13:37 6500 GOLFBROOK 1050 TRAFFIC STOP
160430276779 4-30 13:36 E UNION ST AND E STATE ST 6388 DISPUTE WITH ASSAULT
160430276823 4-30 13:34 13100 ATLANTIC BLVD 63 DISPUTE
160430276903 4-30 13:33 14500 HYATT RD 35 OFFICER NEEDS ASSIST
160430276845 4-30 13:30 1200 BROOKWOOD FOREST BLVD 6388 DISPUTE WITH ASSAULT
160430276873 4-30 13:27 3300 MONUMENT RD 22 DOMESTIC
160430276887 4-30 13:26 5100 INDIAN LAKES CT 76 ASSIST OTHER AGENCY
160430276813 4-30 13:26 4400 SPRING GLEN RD 11 ABANDONED VEHICLE
160430276867 4-30 13:24 3600 CAMERON CROSSING DR 95ID IDENTITY THEFT
160430276857 4-30 13:23 1400 W 5TH ST 76 ASSIST OTHER AGENCY
160430276880 4-30 13:22 3700 BLANDING BLVD 86 LOST PROPERTY
160430276875 4-30 13:20 100 W ADAMS ST 13 SUSPICIOUS PERSON
160430276877 4-30 13:19 4400 ROOSEVELT BLVD 54 ILLEGALLY PARKED CAR
160430276874 4-30 13:18 8800 BEACH BLVD 3 HIT AND RUN CRASH
160430276876 4-30 13:18 KENDALL TOWN BLVD AND TREDINICK PKWY 96 ASSIST MOTORIST
160430276846 4-30 13:16 7500 ARLINGTON EXPWY 37 UNVERIFIED 911 CALL
160430276862 4-30 13:14 NORMANDY BLVD AND FOURAKER RD 64 NOISE COMPLAINT
160430276803 4-30 13:12 10900 SAN JOSE BLVD 19 ANIMAL INVESTIGATION
160430276798 4-30 13:12 10000 N GATE PKWY 63 DISPUTE
160430276856 4-30 13:12 100 E MATHEWS BRG 16 ROAD OBSTRUCTION
160430276858 4-30 13:11 100 E MATHEWS BRG 60 SUICIDE OR ATTEMPT
160430276859 4-30 13:11 8400 HELEN TER 64 NOISE COMPLAINT
160430276843 4-30 13:10 700 DUVAL STATION RD 4 AUTO CRASH
160430276772 4-30 13:10 5800 E RIDGEWAY RD 63 DISPUTE
160430276756 4-30 13:10 8100 MC GLOTHLIN ST 63 DISPUTE
160430276854 4-30 13:09 N I295 EXPWY AND BLANDING BLVD 1050 TRAFFIC STOP
160430276836 4-30 13:09 100 E MATHEWS BRG 16 ROAD OBSTRUCTION
160430276851 4-30 13:09 800 MAGIC COVE LN 64 NOISE COMPLAINT
160430276850 4-30 13:08 11500 OAK MEADOW LN 1066 CANCEL
160430276816 4-30 13:08 MERRILL RD AND WEDGEFIELD BLVD 16 ROAD OBSTRUCTION
160430276752 4-30 13:04 100 S BUCKMAN BRG 16 ROAD OBSTRUCTION
160430276727 4-30 13:04 KINGS RD AND BARNETT ST 73 DRUG INVESTIGATION
160430276832 4-30 13:02 LUCILLE RD AND N EDGEWOOD AVE 27 MENTALLY ILL PERSON
160430276713 4-30 13:00 100 W 4TH ST 2 63 DISPUTE IMPAIRED/INTOXICATED
160430276827 4-30 12:59 4700 HODGES BLVD 76 ASSIST OTHER AGENCY
160430276731 4-30 12:58 4600 BIRD AVE 14RT VANDALISM RESIDENCE TELESERVE
160430276791 4-30 12:57 12200 MEADOWCREST LN 63 DISPUTE
160430276822 4-30 12:54 NEW BERLIN RD AND N MAIN ST 63 DISPUTE
160430276754 4-30 12:53 4400 LAMBING RD 63 DISPUTE
160430276808 4-30 12:53 2900 JUSTINA RD 63 DISPUTE
160430276744 4-30 12:53 12300 APPLE LEAF DR 63 DISPUTE
160430276812 4-30 12:50 9700 FLECHETTE AVE 9T THEFT (TELESERVE)
160430276801 4-30 12:50 3700 EMERSON ST 6388 DISPUTE WITH ASSAULT
160430276787 4-30 12:48 200 E BEAVER ST 13 SUSPICIOUS PERSON
160430276794 4-30 12:44 12600 BEACH BLVD 13 SUSPICIOUS PERSON
160430276640 4-30 12:44 4200 PHILLIPS HWY 4 AUTO CRASH
160430276804 4-30 12:42 4300 CHAFFE RD 16 ROAD OBSTRUCTION
160430276789 4-30 12:42 7500 W BAYMEADOWS CIR 13 SUSPICIOUS PERSON
160430276800 4-30 12:41 I295 NB/AT I95 N EXIT 1050 TRAFFIC STOP
160430276730 4-30 12:40 6700 103RD ST 63 DISPUTE
160430276793 4-30 12:36 1900 ATLANTIC BLVD 76 ASSIST OTHER AGENCY
160430276781 4-30 12:36 1900 PAINE AVE 63 DISPUTE
160430276792 4-30 12:35 CARROLLTON RD AND LEM TURNER RD 96 ASSIST MOTORIST
160430276790 4-30 12:34 4500 SAN PABLO 1050 TRAFFIC STOP
160430276786 4-30 12:32 295/10SPLIT 96 ASSIST MOTORIST
160430276782 4-30 12:31 1800 KINGS RD 60 SUICIDE OR ATTEMPT
160430276558 4-30 12:30 5700 PHILLIPS HWY 63 DISPUTE
160430276768 4-30 12:30 5500 TIMUQUANA RD 13 SUSPICIOUS PERSON
160430276784 4-30 12:29 14000 SADDLEHILL CT 1066 CANCEL
160430276748 4-30 12:28 800 S ELLIS RD 12 RECKLESS DRIVER
160430276725 4-30 12:27 3700 WHITEHALL ST 9T THEFT (TELESERVE)
160430276715 4-30 12:27 1100 CASSAT AVE 63 DISPUTE
160430276778 4-30 12:26 11500 TORI LN 22 DOMESTIC
160430276775 4-30 12:26 N I295 EXPWY AND PRITCHARD RD 12 RECKLESS DRIVER
160430276712 4-30 12:25 13700 N RICHMOND PARK DR 4 AUTO CRASH
160430276776 4-30 12:24 200 CANDLEBARK DR 60 SUICIDE OR ATTEMPT
160430276707 4-30 12:23 ATLANTIC BLVD AND HART EXPWY 12 RECKLESS DRIVER
160430276773 4-30 12:23 11200 KINGS GROVE CT 76 ASSIST OTHER AGENCY
160430276747 4-30 12:22 900 DUNN AVE 3 HIT AND RUN CRASH
160430276716 4-30 12:21 900 W ADAMS ST 95IDJ IDENTITY THEFT JUST OCCURRED
160430276695 4-30 12:20 1100 FRANKLIN ST 13 SUSPICIOUS PERSON
160430276548 4-30 12:20 8700 BAYMEADOWS RD 4 AUTO CRASH
160430276740 4-30 12:20 1400 DOUGLAS ST 37 UNVERIFIED 911 CALL
160430276653 4-30 12:20 COLLINS RD AND S I295 EXPWY 19 ANIMAL INVESTIGATION
160430276686 4-30 12:19 8300 FINWOOD AVE 64 NOISE COMPLAINT
160430276764 4-30 12:16 N I295 EXPWY AND WILSON BLVD 13 SUSPICIOUS PERSON
160430276745 4-30 12:16 LENOX AVE AND TALBOT AVE 63 DISPUTE
160430276641 4-30 12:15 1400 W 14TH ST 63 DISPUTE
160430276757 4-30 12:14 MARGARET ST AND RIVERSIDE AVE 13 SUSPICIOUS PERSON
160430276746 4-30 12:13 S I95 EXPWY AND PECAN PARK RD 12 RECKLESS DRIVER
160430276753 4-30 12:13 800 BROWARD RD 63 DISPUTE
160430276729 4-30 12:13 12500 LAMAR SHAW RD 6388 DISPUTE WITH ASSAULT
160430276741 4-30 12:12 6700 RAMONA BLVD 13 SUSPICIOUS PERSON
160430276723 4-30 12:12 1500 S LANE AVE 1066 CANCEL
160430276708 4-30 12:09 9400 S PRINCETON SQUARE BLVD 95IDT IDENTITY THEFT TELESERVE
160430276739 4-30 12:06 100 SHIRCLIFF WAY 63 DISPUTE
160430276699 4-30 12:05 BEACH BLVD AND S ST JOHNS BLUFF RD 4 AUTO CRASH
160430276659 4-30 12:03 9000 RIDGE BLVD 63 DISPUTE
160430276734 4-30 12:03 8800 SOUTHSIDE BLVD 13 SUSPICIOUS PERSON
160430276628 4-30 12:01 4700 TUNIS ST 27 MENTALLY ILL PERSON
160430276726 4-30 12:00 11000 BEACH BLVD 4 53 TRAFFIC CRASH PERSON INJURED
160430276717 4-30 11:58 9700 FLECHETTE AVE 9T THEFT (TELESERVE)
160430276722 4-30 11:58 500 E ADAMS ST 4 AUTO CRASH
160430276697 4-30 11:57 6800 NORMANDY BLVD 9 THEFT
160430276724 4-30 11:57 PARK ST AND KING ST 13 SUSPICIOUS PERSON
160430276687 4-30 11:53 8400 W GATE PKWY 22 DOMESTIC
160430276565 4-30 11:51 4800 CHURCHILL DR 64 NOISE COMPLAINT
160430276678 4-30 11:50 6500 POTTSBURG DR 63 DISPUTE
160430276601 4-30 11:50 1800 BALDWIN ST 63 DISPUTE
160430276709 4-30 11:49 10600 SAN JOSE BLVD 56 JUVENILE COMPLAINT
160430276562 4-30 11:47 6100 105TH ST 63 DISPUTE
160430276693 4-30 11:45 4600 LYNCH RD 22 DOMESTIC
160430276698 4-30 11:45 2100 SHEPARD ST 95 FRAUD/FORGED (CHECK, ID, RX)
160430276703 4-30 11:44 3800 N JULIET LEIA CIR 1066 CANCEL
160430276611 4-30 11:42 2100 W 41ST ST 86T LOST PROPERTY (TELESERVE)
160430276690 4-30 11:42 10100 NEW KINGS RD 9J THEFT JUST OCCURRED
160430276625 4-30 11:39 ATLANTIC BLVD AND MONUMENT RD 4 AUTO CRASH
160430276676 4-30 11:37 13700 OLD ST AUGUSTINE RD 5582 HOLDING ONE FOR SHOPLIFTING
160430276656 4-30 11:36 4200 GOLDIE ST 2288 DOMESTIC DISPUTE WITH/ASSAULT
160430276684 4-30 11:36 N LEE ST AND W MONROE ST 4 53 TRAFFIC CRASH PERSON INJURED
160430276671 4-30 11:35 HERLONG RD AND FOURAKER RD 64 NOISE COMPLAINT
160430276681 4-30 11:34 S LAURA ST AND W BAY ST 4 53 TRAFFIC CRASH PERSON INJURED
160430276609 4-30 11:34 6100 E SPIREA ST 9T THEFT (TELESERVE)
160430276654 4-30 11:34 TOWNSEND RD AND ST IVES CT 13 SUSPICIOUS PERSON
160430276680 4-30 11:33 2100 E SOUND OVERLOOK DR 96 ASSIST MOTORIST
160430276655 4-30 11:30 300 PECAN PARK RD 63 DISPUTE
160430276668 4-30 11:30 5100 SHENANDOAH AVE 1066 CANCEL
160430276673 4-30 11:29 1900 SOUTHSIDE BLVD 1066 CANCEL
160430276648 4-30 11:28 4600 RAMONA BLVD 21C BURGLARY CONVEYANCE
160430276667 4-30 11:27 4700 GLENWOOD AVE 21C BURGLARY CONVEYANCE
160430276590 4-30 11:27 1800 MT VERNON DR 4 AUTO CRASH
160430276585 4-30 11:26 8500 ARGYLE FOREST BLVD 4 AUTO CRASH
160430276644 4-30 11:23 1000 ST CLAIR ST 37 UNVERIFIED 911 CALL
160430276613 4-30 11:23 8200 DIX ELLIS TRL 50 FOUND/ABANDONED PROPERTY
160430276651 4-30 11:21 WESCONNETT BLVD AND 103RD ST 76 ASSIST OTHER AGENCY
160430276652 4-30 11:19 VALLEYVIEW DR AND W CARLOTTA RD 16 ROAD OBSTRUCTION
160430276615 4-30 11:16 8200 NEWTON RD 22 DOMESTIC
160430276643 4-30 11:13 200 W 44TH ST 63 DISPUTE
160430276645 4-30 11:13 3000 W HORSESHOE DR 21C BURGLARY CONVEYANCE
160430276593 4-30 11:11 2000 W 17TH ST 86T LOST PROPERTY (TELESERVE)
160430276638 4-30 11:10 I95 OFF RAMP/NB PHILLIPS 96 ASSIST MOTORIST
160430276634 4-30 11:10 13200 CITY STATION DR 13 SUSPICIOUS PERSON
160430276633 4-30 11:08 100 CRESCENT COVE CT 22 DOMESTIC
160430276626 4-30 11:08 3500 S KERNAN BLVD 9 THEFT
160430276630 4-30 11:06 5600 BEACH BLVD 1066 CANCEL
160430276594 4-30 11:05 3900 ORIELY DR 1066 CANCEL
160430276629 4-30 11:04 200 S US 301 HWY 13 SUSPICIOUS PERSON
160430276550 4-30 11:03 2100 HYDE PARK RD 1066 CANCEL
160430276544 4-30 11:03 4300 MONCRIEF RD 22 DOMESTIC
160430276586 4-30 11:02 N I95 EXPWY 16 ROAD OBSTRUCTION
160430276587 4-30 11:00 5900 FT CAROLINE RD 63 DISPUTE
160430276567 4-30 11:00 3400 TOWNSEND BLVD 9 THEFT
160430276621 4-30 10:59 APR/GATOR BOWL 87 DAMAGED PROPERTY
160430276619 4-30 10:59 4700 SAN JOSE BLVD 88J ASSAULT JUST OCCURRED
160430276614 4-30 10:58 13200 BONEY RD 1066 CANCEL
160430276603 4-30 10:56 1100 E FROMAGE CIR 4 AUTO CRASH
160430276607 4-30 10:55 1000 GOLFAIR BLVD 1066 CANCEL
160430276575 4-30 10:54 5700 IMESON RD 3T HIT AND RUN CRASH - TELESERVE
160430276553 4-30 10:54 9500 REGENCY SQUARE BLVD 4 AUTO CRASH
160430276610 4-30 10:53 ADAMS/I95 4 AUTO CRASH
160430276491 4-30 10:52 6400 LACEY CT 2288 DOMESTIC DISPUTE WITH/ASSAULT
160430276579 4-30 10:51 100 S BUCKMAN BRG 96 ASSIST MOTORIST
160430276602 4-30 10:50 S MILMAR DR AND BARTRAM RD 63 DISPUTE
160430276547 4-30 10:49 1000 W 24TH ST 63 DISPUTE
160430276566 4-30 10:49 SPRING PARK RD AND BOWDEN RD 13 SUSPICIOUS PERSON
160430276599 4-30 10:48 14700 BARTRAM SPRINGS PKWY 0 13 ARMED SUSPICIOUS PERSON
160430276549 4-30 10:47 7100 S OLD KINGS RD 1066T CANCEL TELESERVE
160430276597 4-30 10:45 1100 S EDGEWOOD AVE 96 ASSIST MOTORIST
160430276595 4-30 10:44 COMMONWEALTH AVE AND ST CLAIR TER 1050 TRAFFIC STOP
160430276588 4-30 10:42 N I95 EXPWY AND W FORSYTH ST 16 ROAD OBSTRUCTION
160430276574 4-30 10:41 200 N WATEREDGE DR 56 JUVENILE COMPLAINT
160430276581 4-30 10:40 S LANE AVE AND SAN JUAN AVE 1 IMPAIRED/DRUNK DRIVER
160430276584 4-30 10:38 S EDGEWOOD AVE AND ROOSEVELT BLVD 13 SUSPICIOUS PERSON
160430276583 4-30 10:38 700 TREKKER ST 1066 CANCEL
160430276554 4-30 10:36 TIMUQUANA RD AND SEABOARD AVE 12 RECKLESS DRIVER
160430276546 4-30 10:34 900 CORSICA LN 68T CON GAME/FLIM FLAM TELESERVE
160430276572 4-30 10:34 7900 E BAYMEADOWS RD 21B BURGLARY BUSINESS
160430276576 4-30 10:33 8800 BEACH BLVD 13 SUSPICIOUS PERSON
160430276563 4-30 10:33 600 W 8TH ST 9 THEFT
160430276573 4-30 10:31 100 N DAMES POINT BRG 16 ROAD OBSTRUCTION
160430276500 4-30 10:30 4600 PLAYSCHOOL DR 88 ASSAULT
160430276570 4-30 10:29 6200 PICKETTVILLE RD 21R BURGLARY RESIDENCE
160430276540 4-30 10:28 3100 FOREST CIR 22 DOMESTIC
160430276551 4-30 10:28 4400 CLINTON AVE 19 ANIMAL INVESTIGATION
160430276530 4-30 10:26 ARIZONA ST AND N CAHOON RD 80 PROSTITUTION (ONLY)
160430276560 4-30 10:25 2900 EDISON AVE 1050 TRAFFIC STOP
160430276559 4-30 10:25 6100 BLANDING BLVD 96 ASSIST MOTORIST
160430276541 4-30 10:22 5700 IMESON RD 3T HIT AND RUN CRASH - TELESERVE
160430276496 4-30 10:21 5700 GREEN PALM LN 63 DISPUTE
160430276457 4-30 10:19 8100 MC GLOTHLIN ST 14C VANDALISM CONVEYANCE
160430276536 4-30 10:19 N I95 EXPWY AND DUNN AVE 16 ROAD OBSTRUCTION
160430276539 4-30 10:19 15500 SPOTTED SADDLE CIR 1066 CANCEL
160430276543 4-30 10:18 3600 NEW BERLIN RD 22 DOMESTIC
160430276531 4-30 10:18 4700 GLENWOOD AVE 21C BURGLARY CONVEYANCE
160430276431 4-30 10:16 BLAIR RD AND NORMANDY BLVD 63 DISPUTE
160430276470 4-30 10:14 7700 E LISA DR 63 DISPUTE
160430276537 4-30 10:13 13000 N MAIN ST 4 AUTO CRASH
160430276533 4-30 10:08 BROADWAY AVE AND CONE ST 1050 TRAFFIC STOP
160430276525 4-30 10:07 6600 OAKWOOD ST 63 DISPUTE
160430276529 4-30 10:06 10/95 96 ASSIST MOTORIST
160430276510 4-30 10:04 1600 E 8TH ST 37 UNVERIFIED 911 CALL
160430276527 4-30 10:04 N I295 EXPWY AND S I95 EXPWY 4 AUTO CRASH
160430276456 4-30 10:03 8100 BLANDING BLVD 63 DISPUTE
160430276521 4-30 10:03 800 S EDGEWOOD AVE 80 PROSTITUTION (ONLY)
160430276524 4-30 10:03 1400 BRADY ST 2 63 DISPUTE IMPAIRED/INTOXICATED
160430276455 4-30 10:01 7000 MELVIN RD 63 DISPUTE
160430276519 4-30 10:01 12400 CONDOR DR 27 MENTALLY ILL PERSON
160430276523 4-30 10:01 200 W UNION 76 ASSIST OTHER AGENCY
160430276451 4-30 10:00 1500 S LANE AVE 14R VANDALISM RESIDENCE
160430276481 4-30 10:00 FLORIDA AVE AND E 1ST ST 4 AUTO CRASH
160430276512 4-30 10:00 2700 CESERY BLVD 63 DISPUTE
160430276449 4-30 09:59 4700 PIRATES BAY DR 79 OBSCENE / THREAT CALL OR LETTER
160430276462 4-30 09:58 9300 103RD ST 63 DISPUTE
160430276506 4-30 09:57 W I10 EXPWY AND CECIL COMMERCE CENTER PKWY 4 AUTO CRASH
160430276406 4-30 09:57 7700 NORMANDY BLVD 63 DISPUTE
160430276339 4-30 09:57 7000 103RD ST 4 AUTO CRASH
160430276349 4-30 09:57 8300 103RD ST 9 THEFT
160430276507 4-30 09:56 W I10 EXPWY AND STOCKTON ST 4 53 TRAFFIC CRASH PERSON INJURED
160430276513 4-30 09:55 11300 BEACH BLVD 4 AUTO CRASH
160430276508 4-30 09:54 W I10 EXPWY AND ROOSEVELT EXPWY 4 53 TRAFFIC CRASH PERSON INJURED
160430276503 4-30 09:52 10300 SOUTHSIDE BLVD 4 AUTO CRASH
160430276473 4-30 09:50 100 W ADAMS ST 21C BURGLARY CONVEYANCE
160430276370 4-30 09:50 6300 103RD ST 63 DISPUTE
160430276440 4-30 09:49 100 W 21ST ST 22 DOMESTIC
160430276494 4-30 09:49 100 N DAMES POINT BRG 16 ROAD OBSTRUCTION
160430276485 4-30 09:48 CHRISTOPHER RD AND ST AUGUSTINE RD 3 HIT AND RUN CRASH
160430276498 4-30 09:47 N DAMES POINT BRDG 16 ROAD OBSTRUCTION
160430276493 4-30 09:45 100 E CHURCH ST 88J ASSAULT JUST OCCURRED
160430276495 4-30 09:45 9800 BEACH BLVD 16 ROAD OBSTRUCTION
160430276469 4-30 09:43 5300 PLYMOUTH ST 13 SUSPICIOUS PERSON
160430276492 4-30 09:43 2700 PARK ST 13 SUSPICIOUS PERSON
160430276476 4-30 09:43 200 SPAULDING RD 21C BURGLARY CONVEYANCE
160430276395 4-30 09:42 2000 WESTCOTT ST 63 DISPUTE
160430276474 4-30 09:42 2200 W EDGEWOOD AVE 11 ABANDONED VEHICLE
160430276466 4-30 09:42 2200 W EDGEWOOD AVE 63 DISPUTE
160430276385 4-30 09:42 2100 LARCHMONT RD 63 DISPUTE
160430276424 4-30 09:41 5200 S DAMASCUS RD 63 DISPUTE
160430276489 4-30 09:41 10500 INDIAN WALK RD 16 ROAD OBSTRUCTION
160430276486 4-30 09:38 6500 ARGYLE FOREST BLVD 13 SUSPICIOUS PERSON
160430276471 4-30 09:35 7000 BLACKARD RD 21B BURGLARY BUSINESS
160430276329 4-30 09:34 3100 DIGNAN ST 63 DISPUTE
160430276480 4-30 09:33 5800 PARIS AVE 22 DOMESTIC
160430276444 4-30 09:32 2600 UNIVERSITY BLVD 8 MISSING PERSON
160430276434 4-30 09:32 7100 WILSON BLVD 21B BURGLARY BUSINESS
160430276478 4-30 09:32 JTB WB/BETWEEN 295 AND GATE 16 ROAD OBSTRUCTION
160430276453 4-30 09:31 4400 S MAJESTIC BLUFF DR 95IDT IDENTITY THEFT TELESERVE
160430276472 4-30 09:27 I10/301 38 TRAFFIC ASSIGNMENT
160430276394 4-30 09:26 200 E STATE ST 63 DISPUTE
160430276366 4-30 09:26 6100 KAREN ST 21R BURGLARY RESIDENCE
160430276446 4-30 09:25 N I95 EXPWY AND PECAN PARK RD 12 RECKLESS DRIVER
160430276464 4-30 09:24 900 MONUMENT RD 16 ROAD OBSTRUCTION
160430276454 4-30 09:22 700 N LINCOLN CT 22 DOMESTIC
160430276458 4-30 09:21 10900 LEM TURNER RD 63 DISPUTE
160430276441 4-30 09:20 N I95 EXPWY AND KINGSEXIT UNION RP 4 AUTO CRASH
160430276397 4-30 09:19 7500 KNOLL DR 28 DELIVER MESSAGE
160430276436 4-30 09:19 1200 SPRING CREEK CT 14C VANDALISM CONVEYANCE
160430276447 4-30 09:17 4400 W MONCRIEF RD 8 27 MISSING MENTALLY ILL
160430276430 4-30 09:16 4200 KINGSBURY ST 13 SUSPICIOUS PERSON
160430276379 4-30 09:16 5900 ROOSEVELT BLVD 95ID IDENTITY THEFT
160430276390 4-30 09:15 3800 LOSCO RD 63 DISPUTE
160430276389 4-30 09:13 E I10 EXPWY AND S I95 EXPWY 16 ROAD OBSTRUCTION
160430276442 4-30 09:13 W I10 EXPWY AND S US 301 HWY 1050 TRAFFIC STOP
160430276438 4-30 09:07 5600 MAXINE DR 60 SUICIDE OR ATTEMPT
160430276422 4-30 09:06 2500 CHARLEVOIX ST 37 UNVERIFIED 911 CALL
160430276435 4-30 09:06 5800 JUSTINA CT 14RP VANDALISM RESIDENCE IN PROGRESS
160430276391 4-30 09:03 12200 NAOMI DR 88 ASSAULT
160430276392 4-30 09:02 8000 INTERNATIONAL VILLAGE DR 22 DOMESTIC
160430276425 4-30 09:01 N MAIN ST AND W DUVAL ST 19 ANIMAL INVESTIGATION
160430276427 4-30 09:01 200 W UNION 4 AUTO CRASH
160430276308 4-30 08:59 7800 E MOSS POINTE TRL 21R BURGLARY RESIDENCE
160430276415 4-30 08:56 3200 JUSTINA TER 13 SUSPICIOUS PERSON
160430276387 4-30 08:56 8700 PINEHAMMOCK CT 21CT BURGLARY CONVEYANCE TELESERVE
160430276420 4-30 08:55 100 S FULLER WARREN BRG 16 ROAD OBSTRUCTION
160430276421 4-30 08:54 S I95 EXPWY AND W CHURCH ST 1050 TRAFFIC STOP
160430276419 4-30 08:54 5200 FREMONT ST 37 UNVERIFIED 911 CALL
160430276418 4-30 08:53 3500 BLANDING BLVD 1050 TRAFFIC STOP
160430276416 4-30 08:53 SAN JOSE BLVD AND SUNBEAM RD 1050 TRAFFIC STOP
160430276368 4-30 08:53 1500 S LANE AVE 63 DISPUTE
160430276341 4-30 08:51 600 CASSAT AVE 4 63 CRASH INVOLVING DISPUTE
160430276407 4-30 08:50 100 S DAMES POINT BRG 16 ROAD OBSTRUCTION
160430276400 4-30 08:48 6900 PITTS RD 22 DOMESTIC
160430276409 4-30 08:46 J TURNER BUTLER BLVD AND HODGES BLVD 96 ASSIST MOTORIST
160430276405 4-30 08:46 100 N DAMES POINT BRG 16 ROAD OBSTRUCTION
160430276346 4-30 08:44 1900 HARDEE ST 10R VEHICLE THEFT RECOVERY
160430276369 4-30 08:43 S US 301 HWY AND E I10 EXPWY 61 FIGHT
160430276401 4-30 08:41 SAN JOSE BLVD AND SUNBEAM RD 1050 TRAFFIC STOP
160430276398 4-30 08:41 PLANTS LN AND PLANT RD 57 PERSON CALLING FOR HELP
160430276382 4-30 08:40 2100 W 13TH ST 0 63 ARMED DISPUTE
160430276383 4-30 08:39 5600 EDENFIELD RD 2 IMPAIRED/INTOXICATED
160430276396 4-30 08:37 I295/SAN JOSE 1050 TRAFFIC STOP
160430276388 4-30 08:36 2900 STATE RD A1A 63 DISPUTE
160430276381 4-30 08:34 3600 NEW BERLIN RD 22 DOMESTIC
160430276312 4-30 08:32 7000 WILEY RD 6388 DISPUTE WITH ASSAULT
160430276375 4-30 08:32 7000 WILEY RD 76 ASSIST OTHER AGENCY
160430276363 4-30 08:28 1300 GROTHE ST 86T LOST PROPERTY (TELESERVE)
160430276380 4-30 08:24 MERRILL RD AND S I295 EXPWY 1050 TRAFFIC STOP
160430276378 4-30 08:24 N LAURA ST AND W UNION ST 4 AUTO CRASH
160430276376 4-30 08:23 N EDGEWOOD AVE AND BOUGAINVILLEA ST 1050 TRAFFIC STOP
160430276373 4-30 08:21 S I95 EXPWY AND EMERSON ST 1050 TRAFFIC STOP
160430276313 4-30 08:20 600 S LINCOLN CT 63 DISPUTE
160430276327 4-30 08:15 4700 CARDINAL PL 64 NOISE COMPLAINT
160430276360 4-30 08:13 N I95 EXPWY AND MARTIN LUTHER KING JR PKWY 96 ASSIST MOTORIST
160430276361 4-30 08:12 4400 EMERSON ST 63 DISPUTE
160430276353 4-30 08:10 11000 BLASIUS RD 1066 CANCEL
160430276354 4-30 08:09 10000 ATLANTIC BLVD 9 THEFT
160430276355 4-30 08:09 1100 ISLAND POINT DR 63 DISPUTE
160430276350 4-30 08:09 1100 GURLEY LN 21C BURGLARY CONVEYANCE
160430276356 4-30 08:08 1300 BROOKWOOD FOREST BLVD 10 VEHICLE THEFT
160430276351 4-30 08:06 14500 OLD ST AUGUSTINE RD 22 DOMESTIC
160430276331 4-30 08:06 BLANDING BLVD AND ARGYLE FOREST BLVD 1066 CANCEL
160430276345 4-30 08:03 SUNBEAM RD AND SAN JOSE BLVD 4 53 TRAFFIC CRASH PERSON INJURED
160430276343 4-30 08:01 5600 ANSLEY ST 63 DISPUTE
160430276334 4-30 08:01 FIRESTONE RD AND 103RD ST 4 53 TRAFFIC CRASH PERSON INJURED
160430276320 4-30 07:59 GOLFAIR BLVD AND BRENTWOOD AVE 91 TRAFFIC LIGHT/RR CROSSING MALFUNCTION
160430276302 4-30 07:58 9700 TAPESTRY PARK CIR 4 AUTO CRASH
160430276333 4-30 07:57 7700 ROLLING HILLS DR 7 DEAD PERSON
160430276335 4-30 07:57 LEM TURNER RD AND PROSPECT ST 63 DISPUTE
160430276330 4-30 07:55 S SAN PABLO RD AND SAM YEPEZ RD 16 ROAD OBSTRUCTION
160430276328 4-30 07:54 3100 HARTRIDGE ST 95T FRAUD/FORGED (CHECK, ID, RX) (TELESERVE)
160430276321 4-30 07:53 E 1ST ST AND N MARKET ST 63 DISPUTE
160430276325 4-30 07:53 BLANDING BLVD AND S I295 EXPWY 4 AUTO CRASH
160430276324 4-30 07:51 5900 PAVILION DR 8FP MISSING PERSON FOUL
160430276317 4-30 07:48 6000 TERRY RD 21C BURGLARY CONVEYANCE
160430276319 4-30 07:48 E I10 EXPWY AND S LANE AVE 1050 TRAFFIC STOP
160430276314 4-30 07:43 500 GUN CLUB RD 11 ABANDONED VEHICLE
160430276309 4-30 07:42 2900 SRA1A HWY 22 DOMESTIC
160430276301 4-30 07:42 1700 S SAN PABLO RD 68T CON GAME/FLIM FLAM TELESERVE
160430276280 4-30 07:40 6000 TERRY RD 21C BURGLARY CONVEYANCE
160430276307 4-30 07:38 I95/S OF 9A 1050 TRAFFIC STOP
160430276303 4-30 07:37 BEACH BLVD AND S SAN PABLO RD 12 RECKLESS DRIVER
160430276269 4-30 07:29 3200 JUSTINA RD 63 DISPUTE
160430276297 4-30 07:29 11800 W CLEARWATER OAKS DR 1066 CANCEL
160430276298 4-30 07:29 200 W UNION ST 8 MISSING PERSON
160430276273 4-30 07:28 3500 WASHINGTONIAN ST 64 NOISE COMPLAINT
160430276294 4-30 07:25 400 E 2ND ST 88P ASSAULT IN PROGRESS
160430276279 4-30 07:24 EMERSON ST AND SHARON TER 2 IMPAIRED/INTOXICATED
160430276293 4-30 07:24 W I10 EXPWY AND S I295 EXPWY 4 AUTO CRASH
160430276257 4-30 07:22 5800 TEMPEST ST 14R VANDALISM RESIDENCE
160430276262 4-30 07:19 6800 E PLUM LAKE LN 10 VEHICLE THEFT
160430276233 4-30 07:18 4900 HARLOW BLVD 87 DAMAGED PROPERTY
160430276288 4-30 07:18 4300 CONFEDERATE POINT RD 19 ANIMAL INVESTIGATION
160430276286 4-30 07:17 W I10 EXPWY AND S LANE AVE 16 ROAD OBSTRUCTION
160430276284 4-30 07:15 3400 COMMONWEALTH AVE 63 DISPUTE
160430276285 4-30 07:14 7000 GREENHOLLY DR 21C BURGLARY CONVEYANCE
160430276283 4-30 07:12 6200 103RD ST 76 ASSIST OTHER AGENCY
160430276281 4-30 07:09 2000 FOREST ST 1066 CANCEL
160430276277 4-30 07:06 S I95 EXPWY AND J TURNER BUTLER BLVD 1050 TRAFFIC STOP
160430276272 4-30 07:00 10900 LEM TURNER RD 76 ASSIST OTHER AGENCY
160430276270 4-30 06:57 1000 W EDGEWOOD AVE 14C VANDALISM CONVEYANCE
160430276265 4-30 06:52 11200 BEACH BLVD 22 DOMESTIC
160430276258 4-30 06:49 1900 W DURKEE DR 63 DISPUTE
160430276260 4-30 06:47 I95SB/EMERSON 96 ASSIST MOTORIST
160430276251 4-30 06:47 1100 S EDGEWOOD AVE 14B VANDALISM BUSINESS
160430276237 4-30 06:46 13600 BEACH BLVD 37 UNVERIFIED 911 CALL
160430276252 4-30 06:39 1300 E 10TH ST 76 ASSIST OTHER AGENCY
160430276253 4-30 06:38 1700 KINGS RD 63 DISPUTE
160430276250 4-30 06:37 1000 AIRPORT RD 60 SUICIDE OR ATTEMPT
160430276218 4-30 06:37 5600 S PINEBAY CIR 63 DISPUTE
160430276249 4-30 06:34 W HICKORY CREEK BLVD AND ATLANTIC BLVD 1050 TRAFFIC STOP
160430276244 4-30 06:31 S I95 EXPWY AND MARTIN LUTHER KING JR PKWY 1050 TRAFFIC STOP
160430276242 4-30 06:29 W I10 EXPWY AND GREELAND AV EXIT I10W RP 1050 TRAFFIC STOP
160430276239 4-30 06:27 3500 S ST JOHNS BLUFF RD 13 SUSPICIOUS PERSON
160430276236 4-30 06:24 S I95 EXPWY AND E I10 EXPWY 12 RECKLESS DRIVER
160430276229 4-30 06:24 2400 S CEDAR SHORES CIR 37 UNVERIFIED 911 CALL
160430276235 4-30 06:23 S I95 EXPWY AND KINGS AVE 12 RECKLESS DRIVER
160430276234 4-30 06:23 S I95 EXPWY AND W CHURCH ST 12 RECKLESS DRIVER
160430276195 4-30 06:22 3800 PRITMORE RD 5388 ASSAULT INVOLVING INJURY
160430276230 4-30 06:18 ELLA ST AND POWHATTAN ST 1050 TRAFFIC STOP
160430276221 4-30 06:15 12500 S CASCARA DR 22 DOMESTIC
160430276227 4-30 06:15 N MAIN ST AND W 21ST ST 13 SUSPICIOUS PERSON
160430276224 4-30 06:10 S I295 EXPWY AND SOUTHSIDE CONNECTOR BLVD 96 ASSIST MOTORIST
160430276216 4-30 06:05 6700 N MARION CT 14C VANDALISM CONVEYANCE
160430276219 4-30 06:05 3200 LIBERTY CIR 2 63 DISPUTE IMPAIRED/INTOXICATED
160430276185 4-30 05:54 5800 SAN JUAN AVE 2 63 DISPUTE IMPAIRED/INTOXICATED
160430276210 4-30 05:53 N I295 EXPWY AND S I95 EXPWY 16 ROAD OBSTRUCTION
160430276199 4-30 05:53 1500 S LANE AVE 9 THEFT
160430276209 4-30 05:53 S I95 EXPWY AND MARTIN LUTHER KING JR PKWY 1050 TRAFFIC STOP
160430276207 4-30 05:49 2400 DUNN AVE 10R VEHICLE THEFT RECOVERY
160430276198 4-30 05:47 10200 OLD ST AUGUSTINE RD 13 SUSPICIOUS PERSON
160430276205 4-30 05:47 1000 AIRPORT RD 21B BURGLARY BUSINESS
160430276200 4-30 05:44 1100 W ROMAINE CIR 8 MISSING PERSON
160430276202 4-30 05:44 W 23RD ST AND N MAIN ST 63 DISPUTE
160430276184 4-30 05:42 5600 N GREATPINE LN 21CJ BURGLARY CONVEYANCE JUST OCCURRED
160430276201 4-30 05:42 9900 NEW KINGS RD 13 SUSPICIOUS PERSON
160430276182 4-30 05:41 ROOSEVELT BLVD AND S EDGEWOOD AVE 12 RECKLESS DRIVER
160430276196 4-30 05:38 8000 SOUTHSIDE BLVD 64 NOISE COMPLAINT
160430276181 4-30 05:38 3200 E CANCUN DR 13 SUSPICIOUS PERSON
160430276193 4-30 05:33 2500 RIVERSIDE 1050 TRAFFIC STOP
160430276173 4-30 05:33 WEST PALM AVE AND W 1ST ST 88 ASSAULT
160430276192 4-30 05:31 4900 W UNIVERSITY BLVD 1050 TRAFFIC STOP
160430276161 4-30 05:30 2000 W 12TH ST 88 ASSAULT
160430276183 4-30 05:26 N I295 EXPWY AND WILSON BLVD 12 RECKLESS DRIVER
160430276169 4-30 05:26 SAN MARCO BLVD AND PHILLIPS ST 96 ASSIST MOTORIST
160430276187 4-30 05:22 7700 S FAWN LAKE DR 1066 CANCEL
160430276179 4-30 05:20 1600 RIVERSIDE AVE 76 ASSIST OTHER AGENCY
160430276178 4-30 05:05 4400 ROOSEVELT BLVD 21B BURGLARY BUSINESS
160430276162 4-30 04:54 2700 PAUL AVE 1066 CANCEL
160430276168 4-30 04:53 9300 NORFOLK BLVD 27 MENTALLY ILL PERSON
160430276158 4-30 04:49 1500 S LANE AVE 9 THEFT
160430276171 4-30 04:48 N I95 EXPWY AND PECAN PARK RD 1050 TRAFFIC STOP
160430276166 4-30 04:43 7400 GRANT AVE 2 63 DISPUTE IMPAIRED/INTOXICATED
160430276153 4-30 04:35 1400 W 2ND ST 2288 DOMESTIC DISPUTE WITH/ASSAULT
160430276163 4-30 04:34 1300 BROOKWOOD FOREST BLVD 21CP BURGLARY CONVEYANCE IN PROGRESS
160430276160 4-30 04:25 1900 W 44TH ST 22 DOMESTIC
160430276157 4-30 04:15 1000 STARRATT RD 2288 DOMESTIC DISPUTE WITH/ASSAULT
160430276156 4-30 04:15 2100 KINGS RD 76 ASSIST OTHER AGENCY
160430276155 4-30 04:12 1500 NORMANDY VILLAGE PKWY 13 SUSPICIOUS PERSON
160430276154 4-30 04:12 3400 DAWSON ST 2288 DOMESTIC DISPUTE WITH/ASSAULT
160430276150 4-30 04:10 1600 BARTRAM RD 64 NOISE COMPLAINT
160430276151 4-30 04:06 400 BASSWOOD ST 37 UNVERIFIED 911 CALL
160430276152 4-30 04:04 1600 DUNN AVE 54 ILLEGALLY PARKED CAR
160430276145 4-30 04:03 1400 E 14TH ST 63 DISPUTE
160430276071 4-30 04:00 OLGA PL AND CHERRY ST 64 NOISE COMPLAINT
160430276147 4-30 04:00 4400 PHILLIPS HWY 60 SUICIDE OR ATTEMPT
160430276136 4-30 03:58 1000 OAK ST 0 63 ARMED DISPUTE
160430276119 4-30 03:55 6400 ROBINSON RD 2 22 DOMESTIC DISTURBANCE
160430276143 4-30 03:50 100 S MAIN ST 13 SUSPICIOUS PERSON
160430276142 4-30 03:49 100 E MATHEWS BRG 16 ROAD OBSTRUCTION
160430276140 4-30 03:46 S EDGEWOOD AVE AND ROOSEVELT BLVD 1 IMPAIRED/DRUNK DRIVER
160430276139 4-30 03:45 11900 ATLANTIC BLVD 12 RECKLESS DRIVER
160430276137 4-30 03:43 J TURNER BUTLER BLVD AND PHILLIPS HWY 13 SUSPICIOUS PERSON
160430276135 4-30 03:43 500 S LANE AVE 5388 ASSAULT INVOLVING INJURY
160430276134 4-30 03:40 1000 E 12TH ST 64 NOISE COMPLAINT
160430276133 4-30 03:40 700 KING ST 76 ASSIST OTHER AGENCY
160430276120 4-30 03:39 2200 W 1ST ST 63 DISPUTE
160430276118 4-30 03:39 4200 CONNIE ST 22 DOMESTIC
160430276109 4-30 03:38 8200 NORMANDY BLVD 63 DISPUTE
160430276062 4-30 03:37 900 KING ST 2 63 DISPUTE IMPAIRED/INTOXICATED
160430276132 4-30 03:36 12400 CONDOR DR 27 MENTALLY ILL PERSON
160430276123 4-30 03:35 5200 S DAMASCUS RD 63 DISPUTE
160430276130 4-30 03:35 3300 COLLEGE ST 76 ASSIST OTHER AGENCY
160430276129 4-30 03:35 7100 WEDGEWOOD DR 76 ASSIST OTHER AGENCY
160430276069 4-30 03:34 10200 MAGNOLIA RIDGE RD 22 DOMESTIC
160430276127 4-30 03:31 MERRILL RD AND WEDGEFIELD BLVD 13 SUSPICIOUS PERSON
160430276128 4-30 03:30 3600 S UNIVERSITY BLVD 12 RECKLESS DRIVER
160430276126 4-30 03:30 800 S US 301 HWY 13 SUSPICIOUS PERSON
160430276091 4-30 03:27 9500 N REGENCY SQUARE BLVD 63 DISPUTE
160430276124 4-30 03:26 W MONCRIEF RD AND IMESON RD 76 ASSIST OTHER AGENCY
160430276122 4-30 03:26 BEACH BLVD AND WEST RD 76 ASSIST OTHER AGENCY
160430276121 4-30 03:23 3400 BROADWAY AVE 1050 TRAFFIC STOP
160430276097 4-30 03:23 4400 W MELISSA CT 33 DISCHARGING OF FIREARM
160430276111 4-30 03:19 1600 BARTRAM RD 0 13 ARMED SUSPICIOUS PERSON
160430276099 4-30 03:19 TRAPPERS CREEK DR AND STAPLES MILL DR 4 AUTO CRASH
160430276117 4-30 03:19 1500 W UNION ST 5388 ASSAULT INVOLVING INJURY
160430276108 4-30 03:18 3300 WARRINGTON ST 41 ARSON
160430276112 4-30 03:17 10000 ATLANTIC BLVD 63 DISPUTE
160430276077 4-30 03:13 5300 TIMUQUANA RD 21R BURGLARY RESIDENCE
160430276088 4-30 03:12 100 N PEARL ST 27 MENTALLY ILL PERSON
160430276092 4-30 03:11 4000 TIMUQUANA RD 37 UNVERIFIED 911 CALL
160430276107 4-30 03:10 600 AIRPORT CENTER DR 61 FIGHT
160430276089 4-30 03:09 W 6TH ST AND POWHATTAN ST 73 DRUG INVESTIGATION
160430276104 4-30 03:07 1900 JAMMES RD 76 ASSIST OTHER AGENCY
160430276098 4-30 03:05 3700 EMERSON ST 2 63 DISPUTE IMPAIRED/INTOXICATED
160430276093 4-30 02:56 6900 CORDAY RD 33 DISCHARGING OF FIREARM
160430276095 4-30 02:56 N I95 EXPWY 4 53 TRAFFIC CRASH PERSON INJURED
160430276074 4-30 02:56 7200 S SHARBETH DR 63 DISPUTE
160430276096 4-30 02:56 SOUTEL DR AND W MONCRIEF RD 13 SUSPICIOUS PERSON
160430276094 4-30 02:55 8500 BAYMEADOWS RD 1066 CANCEL
160430276090 4-30 02:54 SPIRES AVE AND W 10TH ST 63 DISPUTE
160430276078 4-30 02:51 4900 SUNBEAM RD 63 DISPUTE
160430276083 4-30 02:50 3200 HARTLEY RD 21C BURGLARY CONVEYANCE
160430276085 4-30 02:48 W UNION ST AND N LAURA ST 1050 TRAFFIC STOP
160430276068 4-30 02:42 1500 CASSAT AVE 14 VANDALISM
160430276080 4-30 02:42 BLANDING BLVD AND PARK ST 13 SUSPICIOUS PERSON
160430276075 4-30 02:36 3700 UNIVERSITY CLUB BLVD 56 JUVENILE COMPLAINT
160430276058 4-30 02:35 1400 GOLF FOREST DR 63 DISPUTE
160430276055 4-30 02:34 10300 MEADOW POINT DR 63 DISPUTE
160430276073 4-30 02:34 11200 BEACH BLVD 37 UNVERIFIED 911 CALL
160430276064 4-30 02:33 1200 UNIVERSITY BLVD 37 UNVERIFIED 911 CALL
160430276070 4-30 02:31 100 W UNION ST 1050 TRAFFIC STOP
160430276067 4-30 02:26 W BEAVER ST AND N MC DUFF AVE 4 AUTO CRASH
160430276059 4-30 02:24 4400 W MONCRIEF RD 13 SUSPICIOUS PERSON
160430276034 4-30 02:24 PRITCHARD RD AND JONES RD 16 ROAD OBSTRUCTION
160430276060 4-30 02:23 11700 PALM LAKE DR 22 DOMESTIC
160430276057 4-30 02:19 5200 SHIRLEY AVE 88 ASSAULT
160430276053 4-30 02:18 400 W 16TH ST 63 DISPUTE
160430276054 4-30 02:17 9800 BEACH BLVD 61 FIGHT
160430276051 4-30 02:15 N PEARL ST AND W 69TH ST 13 SUSPICIOUS PERSON
160430276024 4-30 02:15 5000 J TURNER BUTLER BLVD 76 ASSIST OTHER AGENCY
160430276050 4-30 02:15 PULASKI RD AND EASTPORT RD 1050 TRAFFIC STOP
160430276049 4-30 02:15 KING ST AND RIVERSIDE AVE 1050 TRAFFIC STOP
160430276047 4-30 02:13 7000 ATLANTIC BLVD 16 ROAD OBSTRUCTION
160430276044 4-30 02:12 8000 ATLANTIC BLVD 63 DISPUTE
160430276014 4-30 02:12 5200 SEASPRAY AVE 73 DRUG INVESTIGATION
160430276042 4-30 02:09 4800 SEASCAPE WAY 64 NOISE COMPLAINT
160430276019 4-30 02:06 BLANDING BLVD AND N I295 EXPWY 4 AUTO CRASH
160430276041 4-30 02:04 2000 PALAFOX ST 2 IMPAIRED/INTOXICATED
160430276031 4-30 02:03 BARNETT ST AND W 7TH ST 80 PROSTITUTION (ONLY)
160430276038 4-30 02:01 S I295 EXPWY AND BAYMEADOWS RD 1050 TRAFFIC STOP
160430275972 4-30 02:00 5800 ENSENADA RD 63 DISPUTE